| time (UTC) | temp F | wind direction | speed MPH | gust MPH | rain 1hr in | rain 24hr in | rain mn in | humidity % | barometer mb |
| 20260509005446 | 49 | 96 | 0.0 | 0.0 | 0.00 | 0.10 | 0.10 | 94 | 1040.9 |
| 20260509004442 | 49 | 101 | 0.0 | 0.0 | 0.00 | 0.10 | 0.10 | 94 | 1040.9 |
| 20260509003438 | 49 | 101 | 0.0 | 0.0 | 0.00 | 0.10 | 0.10 | 94 | 1040.3 |
| 20260509002439 | 50 | 101 | 0.0 | 0.0 | 0.00 | 0.10 | 0.10 | 93 | 1040.8 |
| 20260509001438 | 50 | 105 | 0.0 | 0.0 | 0.00 | 0.10 | 0.10 | 93 | 1040.5 |
| 20260509000433 | 50 | 105 | 0.0 | 0.0 | 0.00 | 0.10 | 0.10 | 92 | 1040.3 |
| 20260508235432 | 50 | 107 | 0.0 | 0.0 | 0.00 | 0.10 | 0.10 | 92 | 1040.4 |
| 20260508234431 | 50 | 108 | 0.0 | 0.0 | 0.00 | 0.10 | 0.10 | 91 | 1040.3 |
| 20260508233428 | 51 | 107 | 0.0 | 0.0 | 0.05 | 0.10 | 0.10 | 89 | 1040.3 |
| 20260508232427 | 51 | 108 | 0.0 | 0.0 | 0.00 | 0.09 | 0.09 | 87 | 1040.1 |
| 20260508231428 | 52 | 108 | 0.0 | 0.0 | 0.00 | 0.09 | 0.09 | 83 | 1040.2 |
| 20260508230427 | 53 | 106 | 0.0 | 0.0 | 0.00 | 0.09 | 0.09 | 78 | 1040.2 |
| 20260508225426 | 54 | 107 | 0.0 | 0.0 | 0.00 | 0.09 | 0.09 | 73 | 1040.2 |
| 20260508224421 | 55 | 118 | 1.0 | 2.0 | 0.00 | 0.09 | 0.09 | 68 | 1040.1 |
| 20260508223416 | 57 | 104 | 0.0 | 1.0 | 0.00 | 0.09 | 0.09 | 62 | 1039.7 |
| 20260508222416 | 58 | 108 | 1.0 | 1.0 | 0.00 | 0.09 | 0.09 | 59 | 1039.6 |
| 20260508221414 | 56 | 98 | 1.0 | 1.0 | 0.00 | 0.09 | 0.09 | 59 | 1039.7 |
| 20260508220413 | 56 | 155 | 2.0 | 2.0 | 0.00 | 0.09 | 0.09 | 61 | 1039.7 |
| 20260508215413 | 57 | 104 | 0.0 | 1.0 | 0.00 | 0.09 | 0.09 | 58 | 1039.7 |
| 20260508214413 | 58 | 77 | 1.0 | 1.0 | 0.00 | 0.09 | 0.09 | 57 | 1039.7 |
| 20260508213412 | 56 | 103 | 1.0 | 1.0 | 0.00 | 0.09 | 0.09 | 64 | 1039.9 |
| 20260508212410 | 57 | 106 | 0.0 | 0.0 | 0.00 | 0.09 | 0.09 | 61 | 1039.6 |
| 20260508211407 | 56 | 130 | 2.0 | 2.0 | 0.00 | 0.09 | 0.09 | 62 | 1040.1 |
| 20260508210407 | 57 | 119 | 1.0 | 2.0 | 0.00 | 0.09 | 0.09 | 63 | 1040.0 |
| 20260508205407 | 58 | 190 | 3.0 | 3.0 | 0.00 | 0.09 | 0.09 | 64 | 1040.2 |
| 20260508204406 | 56 | 68 | 1.0 | 2.0 | 0.00 | 0.09 | 0.09 | 63 | 1040.3 |
| 20260508203404 | 56 | 36 | 2.0 | 2.0 | 0.00 | 0.09 | 0.09 | 63 | 1040.2 |
| 20260508202403 | 56 | 18 | 4.0 | 5.0 | 0.00 | 0.09 | 0.09 | 61 | 1040.4 |
| 20260508201403 | 57 | 95 | 1.0 | 2.0 | 0.00 | 0.09 | 0.09 | 60 | 1040.1 |
| 20260508200402 | 57 | 3 | 3.0 | 3.0 | 0.00 | 0.09 | 0.09 | 59 | 1040.3 |
| 20260508195401 | 58 | 358 | 4.0 | 5.0 | 0.00 | 0.09 | 0.09 | 59 | 1040.4 |
| 20260508194400 | 57 | 72 | 3.0 | 3.0 | 0.00 | 0.09 | 0.09 | 60 | 1040.3 |
| 20260508193359 | 54 | 270 | 4.0 | 6.0 | 0.00 | 0.09 | 0.09 | 66 | 1040.5 |
| 20260508192358 | 54 | 278 | 3.0 | 3.0 | 0.00 | 0.09 | 0.09 | 68 | 1040.7 |
| 20260508191353 | 54 | 41 | 1.0 | 2.0 | 0.00 | 0.09 | 0.09 | 65 | 1040.5 |
| 20260508190352 | 55 | 47 | 3.0 | 5.0 | 0.00 | 0.09 | 0.09 | 61 | 1040.8 |
| 20260508185352 | 55 | 106 | 1.0 | 1.0 | 0.00 | 0.09 | 0.09 | 59 | 1040.5 |
| 20260508184353 | 55 | 98 | 1.0 | 1.0 | 0.00 | 0.09 | 0.09 | 61 | 1040.7 |
| 20260508183352 | 55 | 100 | 1.0 | 1.0 | 0.00 | 0.09 | 0.09 | 59 | 1040.6 |
| 20260508182350 | 55 | 248 | 4.0 | 6.0 | 0.00 | 0.09 | 0.09 | 59 | 1040.6 |
| 20260508181349 | 56 | 272 | 10.0 | 13.0 | 0.00 | 0.09 | 0.09 | 57 | 1041.1 |
| 20260508180348 | 56 | 92 | 3.0 | 3.0 | 0.00 | 0.09 | 0.09 | 57 | 1040.9 |
| 20260508175347 | 55 | 54 | 2.0 | 2.0 | 0.00 | 0.09 | 0.09 | 60 | 1041.1 |
| 20260508174342 | 54 | 311 | 5.0 | 7.0 | 0.00 | 0.09 | 0.09 | 60 | 1041.0 |
| 20260508173342 | 54 | 289 | 6.0 | 8.0 | 0.00 | 0.09 | 0.09 | 60 | 1041.1 |
| 20260508172341 | 55 | 293 | 7.0 | 8.0 | 0.00 | 0.09 | 0.09 | 58 | 1041.0 |
| 20260508171339 | 54 | 319 | 6.0 | 7.0 | 0.00 | 0.09 | 0.09 | 60 | 1041.2 |
| 20260508170334 | 53 | 48 | 3.0 | 3.0 | 0.00 | 0.09 | 0.09 | 66 | 1041.3 |
| 20260508165334 | 52 | 172 | 2.0 | 2.0 | 0.00 | 0.09 | 0.09 | 65 | 1041.3 |
| 20260508164332 | 52 | 177 | 4.0 | 5.0 | 0.00 | 0.09 | 0.09 | 66 | 1041.6 |
| 20260508163327 | 51 | 331 | 3.0 | 3.0 | 0.00 | 0.09 | 0.09 | 69 | 1041.6 |
| 20260508162325 | 51 | 82 | 3.0 | 3.0 | 0.00 | 0.09 | 0.09 | 69 | 1041.8 |
| 20260508161326 | 52 | 357 | 4.0 | 5.0 | 0.00 | 0.09 | 0.09 | 68 | 1041.7 |
| 20260508160322 | 52 | 0 | 7.0 | 9.0 | 0.00 | 0.09 | 0.09 | 67 | 1041.4 |
| 20260508155321 | 52 | 308 | 6.0 | 7.0 | 0.00 | 0.09 | 0.09 | 67 | 1041.7 |
| 20260508154315 | 51 | 27 | 7.0 | 10.0 | 0.00 | 0.09 | 0.09 | 67 | 1041.8 |
| 20260508153314 | 51 | 5 | 5.0 | 6.0 | 0.00 | 0.09 | 0.09 | 71 | 1041.6 |
| 20260508152312 | 50 | 41 | 2.0 | 2.0 | 0.00 | 0.09 | 0.09 | 73 | 1041.6 |
| 20260508151311 | 49 | 156 | 3.0 | 3.0 | 0.00 | 0.09 | 0.09 | 73 | 1041.7 |
| 20260508150310 | 50 | 34 | 3.0 | 5.0 | 0.00 | 0.09 | 0.09 | 74 | 1041.7 |
| 20260508145308 | 49 | 88 | 2.0 | 2.0 | 0.00 | 0.09 | 0.09 | 81 | 1042.0 |
| 20260508144303 | 48 | 58 | 2.0 | 2.0 | 0.00 | 0.09 | 0.09 | 82 | 1041.7 |
| 20260508143303 | 46 | 90 | 0.0 | 0.0 | 0.00 | 0.09 | 0.09 | 86 | 1042.3 |
| 20260508142306 | 46 | 90 | 1.0 | 1.0 | 0.07 | 0.09 | 0.09 | 89 | 1042.0 |
| 20260508141302 | 44 | 69 | 1.0 | 1.0 | 0.00 | 0.08 | 0.08 | 92 | 1041.9 |
| 20260508140302 | 44 | 88 | 1.0 | 1.0 | 0.00 | 0.08 | 0.08 | 94 | 1041.9 |
| 20260508135300 | 43 | 104 | 0.0 | 1.0 | 0.00 | 0.08 | 0.08 | 95 | 1042.3 |
| 20260508134259 | 42 | 110 | 1.0 | 1.0 | 0.00 | 0.08 | 0.08 | 95 | 1042.5 |
| 20260508133259 | 42 | 137 | 2.0 | 3.0 | 0.00 | 0.08 | 0.08 | 95 | 1042.7 |
| 20260508132300 | 42 | 58 | 4.0 | 5.0 | 0.00 | 0.08 | 0.08 | 95 | 1042.8 |
| 20260508131257 | 42 | 80 | 1.0 | 2.0 | 0.00 | 0.08 | 0.08 | 95 | 1042.5 |
| 20260508130258 | 42 | 105 | 2.0 | 2.0 | 0.00 | 0.08 | 0.08 | 95 | 1042.5 |
| 20260508125255 | 41 | 68 | 1.0 | 1.0 | 0.00 | 0.08 | 0.08 | 95 | 1042.4 |
| 20260508124250 | 42 | 88 | 0.0 | 1.0 | 0.00 | 0.08 | 0.08 | 95 | 1042.5 |
| 20260508123246 | 42 | 92 | 1.0 | 2.0 | 0.00 | 0.08 | 0.08 | 95 | 1042.3 |
| 20260508122245 | 42 | 96 | 0.0 | 0.0 | 0.00 | 0.08 | 0.08 | 95 | 1042.3 |
| 20260508121241 | 40 | 99 | 0.0 | 0.0 | 0.00 | 0.08 | 0.08 | 95 | 1042.2 |
| 20260508120236 | 39 | 97 | 0.0 | 0.0 | 0.00 | 0.08 | 0.08 | 95 | 1042.1 |
| 20260508115231 | 39 | 103 | 0.0 | 0.0 | 0.00 | 0.08 | 0.08 | 95 | 1042.0 |
| 20260508114230 | 38 | 89 | 0.0 | 0.0 | 0.00 | 0.08 | 0.08 | 95 | 1042.2 |
| 20260508113225 | 38 | 101 | 0.0 | 0.0 | 0.00 | 0.08 | 0.08 | 95 | 1042.3 |
| 20260508112224 | 37 | 96 | 0.0 | 0.0 | 0.00 | 0.08 | 0.08 | 95 | 1042.1 |
| 20260508111218 | 37 | 97 | 0.0 | 0.0 | 0.00 | 0.08 | 0.08 | 95 | 1042.3 |
| 20260508110218 | 37 | 111 | 0.0 | 0.0 | 0.00 | 0.08 | 0.08 | 95 | 1042.3 |
| 20260508105215 | 37 | 79 | 0.0 | 0.0 | 0.00 | 0.08 | 0.08 | 95 | 1042.2 |
| 20260508104215 | 37 | 85 | 0.0 | 0.0 | 0.00 | 0.08 | 0.08 | 95 | 1042.2 |
| 20260508103215 | 37 | 77 | 1.0 | 1.0 | 0.00 | 0.08 | 0.08 | 95 | 1041.9 |
| 20260508102210 | 37 | 88 | 0.0 | 0.0 | 0.00 | 0.08 | 0.08 | 95 | 1042.0 |
| 20260508101205 | 37 | 92 | 0.0 | 0.0 | 0.00 | 0.08 | 0.08 | 95 | 1042.0 |
| 20260508100200 | 36 | 94 | 0.0 | 0.0 | 0.00 | 0.08 | 0.08 | 95 | 1041.9 |
| 20260508095159 | 37 | 76 | 0.0 | 0.0 | 0.00 | 0.08 | 0.08 | 95 | 1042.0 |
| 20260508094158 | 36 | 82 | 0.0 | 0.0 | 0.00 | 0.08 | 0.08 | 95 | 1042.0 |
| 20260508093153 | 37 | 93 | 0.0 | 0.0 | 0.00 | 0.08 | 0.08 | 95 | 1042.0 |
| 20260508092149 | 37 | 95 | 0.0 | 0.0 | 0.00 | 0.08 | 0.08 | 95 | 1041.7 |
| 20260508091149 | 37 | 90 | 0.0 | 0.0 | 0.00 | 0.08 | 0.08 | 95 | 1041.9 |
| 20260508090143 | 37 | 98 | 0.0 | 0.0 | 0.00 | 0.08 | 0.08 | 95 | 1042.0 |
| 20260508085143 | 37 | 100 | 0.0 | 0.0 | 0.00 | 0.08 | 0.08 | 95 | 1041.9 |
| 20260508084142 | 37 | 100 | 0.0 | 0.0 | 0.00 | 0.08 | 0.08 | 95 | 1041.8 |
| 20260508083137 | 37 | 91 | 0.0 | 0.0 | 0.00 | 0.08 | 0.08 | 95 | 1041.6 |
| 20260508082135 | 37 | 81 | 0.0 | 0.0 | 0.00 | 0.08 | 0.08 | 95 | 1041.5 |
| 20260508081135 | 37 | 90 | 1.0 | 1.0 | 0.00 | 0.08 | 0.08 | 95 | 1041.4 |
| 20260508080131 | 38 | 102 | 0.0 | 0.0 | 0.00 | 0.08 | 0.08 | 95 | 1041.4 |
| 20260508075130 | 38 | 96 | 1.0 | 1.0 | 0.00 | 0.08 | 0.08 | 95 | 1041.6 |
| 20260508074124 | 38 | 99 | 0.0 | 0.0 | 0.00 | 0.08 | 0.08 | 95 | 1041.7 |
| 20260508073120 | 39 | 77 | 0.0 | 0.0 | 0.00 | 0.08 | 0.08 | 95 | 1041.5 |
| 20260508072118 | 39 | 81 | 0.0 | 0.0 | 0.00 | 0.08 | 0.08 | 95 | 1041.5 |
| 20260508071114 | 39 | 81 | 0.0 | 0.0 | 0.00 | 0.08 | 0.08 | 95 | 1041.6 |
| 20260508070109 | 40 | 85 | 0.0 | 0.0 | 0.00 | 0.08 | 0.08 | 95 | 1041.6 |
| 20260508065110 | 40 | 83 | 0.0 | 0.0 | 0.00 | 0.08 | 0.08 | 95 | 1041.4 |
| 20260508064105 | 40 | 88 | 0.0 | 0.0 | 0.00 | 0.08 | 0.08 | 95 | 1041.3 |
| 20260508063100 | 40 | 81 | 0.0 | 0.0 | 0.00 | 0.08 | 0.08 | 95 | 1041.6 |
| 20260508062100 | 40 | 79 | 0.0 | 0.0 | 0.00 | 0.08 | 0.08 | 95 | 1041.4 |
| 20260508061055 | 40 | 83 | 0.0 | 0.0 | 0.00 | 0.08 | 0.08 | 95 | 1041.5 |
| 20260508060055 | 41 | 96 | 0.0 | 0.0 | 0.00 | 0.08 | 0.08 | 95 | 1041.4 |
| 20260508055053 | 41 | 96 | 0.0 | 0.0 | 0.00 | 0.08 | 0.08 | 95 | 1041.4 |
| 20260508054053 | 42 | 95 | 0.0 | 1.0 | 0.00 | 0.08 | 0.08 | 95 | 1041.4 |
| 20260508053048 | 42 | 96 | 0.0 | 0.0 | 0.00 | 0.08 | 0.08 | 94 | 1041.3 |
| 20260508052047 | 42 | 94 | 0.0 | 0.0 | 0.00 | 0.08 | 0.08 | 94 | 1041.6 |
| 20260508051044 | 42 | 98 | 0.0 | 0.0 | 0.00 | 0.08 | 0.08 | 93 | 1041.4 |
| 20260508050044 | 43 | 84 | 0.0 | 0.0 | 0.00 | 0.08 | 0.08 | 93 | 1041.3 |
| 20260508045044 | 43 | 105 | 0.0 | 1.0 | 0.12 | 0.08 | 0.08 | 92 | 1041.0 |
| 20260508044042 | 43 | 94 | 1.0 | 1.0 | 0.00 | 0.06 | 0.06 | 92 | 1041.4 |
| 20260508043037 | 43 | 92 | 0.0 | 0.0 | 0.00 | 0.06 | 0.06 | 91 | 1041.5 |
| 20260508042037 | 44 | 99 | 4.0 | 5.0 | 0.12 | 0.06 | 0.06 | 91 | 1041.3 |
| 20260508041035 | 44 | 91 | 2.0 | 2.0 | 0.24 | 0.04 | 0.04 | 92 | 1041.2 |
| 20260508040036 | 45 | 48 | 2.0 | 3.0 | 0.00 | 0.02 | 0.02 | 92 | 1041.1 |
| 20260508035035 | 45 | 94 | 0.0 | 0.0 | 0.00 | 0.02 | 0.02 | 91 | 1040.5 |
| 20260508034035 | 45 | 88 | 0.0 | 0.0 | 0.00 | 0.02 | 0.02 | 90 | 1040.1 |
| 20260508033031 | 45 | 83 | 1.0 | 1.0 | 0.07 | 0.02 | 0.02 | 88 | 1040.0 |
| 20260508032030 | 47 | 85 | 0.0 | 1.0 | 0.12 | 0.02 | 0.02 | 85 | 1039.8 |
| 20260508031028 | 46 | 83 | 1.0 | 2.0 | 0.00 | 0.00 | 0.00 | 82 | 1040.3 |
| 20260508030023 | 46 | 85 | 0.0 | 0.0 | 0.00 | 0.00 | 0.00 | 81 | 1039.8 |
| 20260508025022 | 46 | 120 | 0.0 | 0.0 | 0.00 | 0.00 | 0.00 | 80 | 1039.2 |
| 20260508024021 | 46 | 85 | 0.0 | 0.0 | 0.00 | 0.00 | 0.00 | 79 | 1039.3 |
| 20260508023015 | 46 | 85 | 0.0 | 0.0 | 0.00 | 0.00 | 0.00 | 79 | 1039.1 |
| 20260508022013 | 45 | 92 | 0.0 | 0.0 | 0.00 | 0.00 | 0.00 | 80 | 1038.8 |
| 20260508021010 | 45 | 96 | 0.0 | 0.0 | 0.00 | 0.00 | 0.00 | 79 | 1038.8 |
| 20260508020006 | 46 | 97 | 0.0 | 0.0 | 0.00 | 0.00 | 0.00 | 79 | 1038.7 |
| 20260508015006 | 46 | 97 | 0.0 | 0.0 | 0.00 | 0.00 | 0.00 | 77 | 1039.0 |
| 20260508014004 | 46 | 96 | 0.0 | 0.0 | 0.00 | 0.00 | 0.00 | 77 | 1038.8 |
| 20260508013004 | 46 | 96 | 0.0 | 0.0 | 0.00 | 0.00 | 0.00 | 76 | 1038.5 |
| 20260508012004 | 47 | 96 | 0.0 | 0.0 | 0.00 | 0.00 | 0.00 | 74 | 1038.6 |
| 20260508010959 | 48 | 95 | 0.0 | 0.0 | 0.00 | 0.00 | 0.00 | 72 | 1038.3 |
| 20260508005959 | 48 | 95 | 0.0 | 0.0 | 0.00 | 0.00 | 0.00 | 71 | 1038.0 |